TIME,DELAY(SENSOR),PRES,OXYGEN,RAWTEMP,T(OPTODE),TCPHASE,FLUOR,BETA(BETA700),BETA(BETA412),BETA(BETA440),CDOM,C(CSC),ED(ED411.90),ED(ED443.80),ED(ED489.40),ED(ED554.70),LU(LU412.20),LU(LU443.80),LU(LU489.40),LU(LU555.00),COMP,TILTX,TILTY,CHECK
1356301174,5803,855.1699829101562000,161.8580017089843800,435.1770935058594000,9.5276813507080080,39.4049606323242200,51,98,97,79,80,12695,2146965202,2147521261,2147286006,2147504493,2147090697,2146928000,2147706304,2147125266,1426,-1,9,13327
1356304770,5805,963.7700195312500000,198.1851043701172000,503.2585144042969000,7.4283671379089355,38.0680503845214840,52,100,98,79,81,12690,2146966930,2147516845,2147293604,2147515392,2147089490,2146925257,2147717330,2147125421,2995,-1,9,15766
1356308370,5808,977.2000122070312000,209.2727050781250000,510.8291931152344000,7.1931328773498535,37.5289306640625000,52,96,98,79,81,12687,2146964845,2147520420,2147295862,2147518372,2147091602,2146925028,2147717924,2147123547,224,-1,8,13863
1356311970,5808,978.3200073242188000,209.8878021240234400,512.1829833984375000,7.1510257720947270,37.5171394348144500,52,96,98,79,81,12686,2146966646,2147519058,2147294464,2147519981,2147091273,2146923190,2147719689,2147119195,185,-1,8,39417
1356315570,5809,980.3300170898438000,208.5928955078125000,513.6810302734375000,7.1044178009033200,37.6202507019043000,51,98,98,79,81,12678,2146963574,2147518153,2147298048,2147519259,2147089033,2146926646,2147721691,2147122916,108,-1,8,26591
1356319170,5806,987.9000244140625000,210.2483978271484400,514.3557739257812000,7.0834178924560550,37.5345497131347660,52,99,98,78,81,12686,2146964608,2147519222,2147298038,2147519926,2147090011,2146921380,2147724626,2147121380,300,-1,8,12399
1356322770,5808,990.8200073242188000,210.6024932861328000,513.1956176757812000,7.1195220947265625,37.4928016662597660,52,123,98,80,81,12685,2146967049,2147516160,2147295981,2147518336,2147089645,2146919414,2147720027,2147122742,540,-1,8,32068
1356326370,5807,990.5900268554688000,210.2729949951172000,514.4392700195312000,7.0808191299438480,37.5335197448730500,51,96,98,79,81,12684,2146967844,2147520658,2147294802,2147518966,2147088594,2146926994,2147721435,2147122752,604,-1,8,9441
1356329970,5803,991.9899902343750000,212.9801025390625000,515.5432739257812000,7.0464568138122560,37.3957099914550800,51,183,97,80,80,12680,2146965120,2147519954,2147295798,2147516507,2147089426,2146919305,2147722742,2147122002,2902,-1,8,7823
1356333570,5807,991.5900268554688000,212.7062988281250000,515.6801757812500000,7.0421938896179200,37.4140510559082000,52,96,97,79,81,12680,2146965101,2147518820,2147297270,2147519076,2147088640,2146920347,2147719606,2147120658,3059,-1,9,50806
1356337170,5809,990.2600097656250000,212.6134948730468800,516.2935180664062000,7.0231018066406250,37.4303894042968750,52,98,97,79,81,12680,2146964891,2147518299,2147297481,2147520685,2147093394,2146916617,2147720694,2147122468,293,-1,8,14407
1356340770,5806,992.4600219726562000,212.8824005126953000,516.3192138671875000,7.0222997665405270,37.4153099060058600,51,99,98,78,81,12683,2146964333,2147516681,2147297782,2147518290,2147091492,2146919021,2147722240,2147121106,3565,-1,8,48141
1356344370,5806,992.7600097656250000,213.2893981933593800,516.8980712890625000,7.0042748451232910,37.4020004272460940,51,98,98,79,81,12670,2146968658,2147521444,2147296219,2147518290,2147093312,2146916352,2147723520,2147121398,3152,-1,9,19866
1356347970,5807,996.0599975585938000,212.2154998779297000,516.0681152343750000,7.0301179885864260,37.4493789672851560,51,97,97,79,81,12674,2146968914,2147522422,2147297600,2147519040,2147090898,2146920923,2147720155,2147120420,1,-1,8,16489
1356351570,5806,990.8300170898438000,211.9846954345703000,516.5927124023438000,7.0137848854064940,37.4718513488769500,51,98,97,79,80,12672,2146966701,2147519926,2147300800,2147519789,2147091072,2146919579,2147723044,2147123437,3552,-1,9,53584
1356355170,5806,999.5000000000000000,212.6067962646484400,516.3632812500000000,7.0209279060363770,37.4315605163574200,52,101,97,78,79,12672,2146964278,2147517120,2147297078,2147517796,2147093138,2146918893,2147719835,2147120347,371,-1,9,30441
1356358770,5807,995.9299926757812000,212.2568054199218800,516.6074829101562000,7.0133237838745120,37.4568405151367200,53,99,98,80,81,12571,2146967030,2147521581,2147296009,2147518838,2147093284,2146924388,2147720713,2147121261,264,-1,8,11031
1356362370,5805,991.2500000000000000,212.4541931152343800,517.0068969726562000,7.0008869171142580,37.4525108337402340,53,102,98,79,81,12569,2146964928,2147518098,2147297828,2147520128,2147089819,2146916086,2147718793,2147119917,3066,-1,9,40102
1356365970,5806,994.7199707031250000,215.0711059570312500,517.9512939453125000,6.9714741706848145,37.3174896240234400,51,97,98,80,81,12569,2146964105,2147519680,2147299410,2147518509,2147091922,2146921453,2147720777,2147121334,3231,-1,9,35047
1356369570,5807,993.4799804687500000,215.4801940917968800,518.3547973632812000,6.9589052200317380,37.3012695312500000,51,99,98,81,81,12570,2146965659,2147520493,2147300251,2147520347,2147090779,2146917156,2147721920,2147119204,3510,-1,9,34642
1356373170,5804,993.5599975585938000,216.0574951171875000,519.0048217773438000,6.9386548995971680,37.2798194885253900,51,100,98,78,81,12571,2146966208,2147517092,2147298358,2147519314,2147092470,2146920009,2147721627,2147120100,3283,-1,9,24900
1356376770,5806,990.9099731445312000,216.0960998535156200,519.5396728515625000,6.9219880104064940,37.2874603271484400,51,97,103,79,81,12568,2146966802,2147518637,2147299044,2147519917,2147091145,2146920475,2147719250,2147122752,3438,-1,8,53257
1356380370,5804,991.2700195312500000,217.8179016113281200,521.1193847656250000,6.8727588653564450,37.2174911499023440,53,104,97,79,81,12569,2146966619,2147518006,2147300809,2147516873,2147090422,2146922861,2147725165,2147117312,2867,-1,9,23245
1356383970,5803,991.0100097656250000,215.9465942382812500,520.1207275390625000,6.9038839340209960,37.3058395385742200,51,97,98,79,80,12570,2146966601,2147516836,2147297590,2147520027,2147089142,2146921417,2147721718,2147122898,3520,-1,8,9597
1356387570,5806,991.2199707031250000,217.9779052734375000,521.2036743164062000,6.8701319694519040,37.2100181579589840,51,98,97,78,81,12569,2146965504,2147520301,2147298669,2147520045,2147095149,2146919259,2147722112,2147119689,3177,-1,9,31639
1356391170,5805,995.3599853515625000,217.0615997314453000,519.9666137695312000,6.9086890220642090,37.2401504516601560,51,96,97,80,82,12569,2146966619,2147520512,2147296512,2147519661,2147087954,2146920960,2147719414,2147122093,3055,-1,8,162
1356394770,5806,992.1699829101562000,215.3858032226562500,519.9791870117188000,6.9082927703857420,37.3360481262207000,51,100,98,78,80,12566,2146966336,2147521060,2147299529,2147517229,2147089289,2146919369,2147718692,2147122057,3504,-1,8,35252
1356398370,5810,994.4500122070312000,218.3878021240234400,520.9830932617188000,6.8770070075988770,37.1826286315918000,51,101,97,79,81,12565,2146967542,2147518116,2147298505,2147521033,2147090477,2146920630,2147724525,2147120429,12,-1,8,21971
1356401970,5803,996.5700073242188000,215.5910949707031200,519.6378784179688000,6.9189281463623050,37.3176307678222660,51,97,98,80,81,12567,2146966208,2147522532,2147298742,2147519817,2147091501,2146916224,2147722953,2147120210,3461,-1,8,54571
1356405570,5804,992.5999755859375000,216.2817993164062500,520.4489135742188000,6.8936591148376465,37.2923316955566400,51,98,97,78,81,12564,2146963126,2147521197,2147297920,2147520164,2147090102,2146923373,2147725952,2147120301,3384,-1,9,2976
1356409170,5804,1000.0300292968750000,215.6446075439453000,519.7927246093750000,6.9141068458557130,37.3170814514160160,52,99,97,79,80,12567,2146964214,2147517229,2147299410,2147518217,2147091437,2146921481,2147720612,2147120804,215,-1,8,10565
1356412770,5804,1003.2899780273438000,215.7763061523437500,518.5961914062500000,6.9513850212097170,37.2890014648437500,51,101,98,78,81,12554,2146963757,2147520813,2147297243,2147517595,2147089636,2146923538,2147722770,2147122569,973,-1,8,43783
1356416370,5807,1003.0599975585938000,214.5317993164062500,517.1840820312500000,6.9953689575195310,37.3352508544921900,52,98,98,79,81,12564,2146966838,2147521408,2147294089,2147516306,2147088054,2146920237,2147719954,2147119661,218,-1,8,10689
1356419970,5804,1008.4199829101562000,211.6707000732422000,515.7327880859375000,7.0405569076538090,37.4754600524902340,51,98,98,79,81,12562,2146968832,2147520192,2147298550,2147513097,2147090166,2146923940,2147716589,2147117659,3411,-1,9,23063
1356423570,5807,1001.9500122070312000,213.1296997070312500,516.8988037109375000,7.0042519569396970,37.4112586975097660,51,99,97,79,80,12561,2146965659,2147518326,2147297773,2147518637,2147091337,2146921389,2147723940,2147120201,154,-1,8,41178
1356427170,5806,1000.6799926757812000,211.9472961425781200,518.5759277343750000,6.9520168304443360,37.5095214843750000,51,100,98,79,80,12564,2146966555,2147519844,2147297088,2147517851,2147090194,2146924077,2147724132,2147120722,291,-1,8,6825
1356430770,5808,1001.4000244140625000,214.3596038818359400,518.4754028320312000,6.9551491737365720,37.3676109313964840,52,97,98,78,81,12564,2146964763,2147520274,2147295881,2147517001,2147090578,2146918573,2147719350,2147122870,102,-1,8,18726
1356434370,5804,998.9099731445312000,215.4654998779297000,519.2866210937500000,6.9298758506774900,37.3185501098632800,52,99,97,78,80,12558,2146966747,2147522112,2147298962,2147518409,2147087570,2146923090,2147723254,2147120978,3285,-1,8,25843
1356437970,5806,996.2700195312500000,215.5579986572265600,519.5620117187500000,6.9212961196899410,37.3186302185058600,52,100,98,79,81,12561,2146967680,2147518537,2147302509,2147517558,2147092370,2146925686,2147719616,2147118747,3143,-1,8,22307
1356441570,5807,995.1300048828125000,216.3314971923828000,521.5786743164062000,6.8584399223327640,37.3097000122070300,51,99,97,89,81,12560,2146965869,2147521737,2147299492,2147519405,2147093586,2146922011,2147721929,2147121078,52,-1,8,61611
1356445170,5806,998.4000244140625000,218.3426971435547000,521.4498901367188000,6.8624558448791500,37.1933097839355500,50,98,98,79,80,12557,2146966317,2147520758,2147296768,2147520758,2147091858,2146923090,2147722596,2147122112,3526,-1,9,18259
1356445556,5805,9.6999998092651370,218.3648986816406200,521.2103271484375000,6.8699250221252440,37.1877403259277340,52,101,98,79,81,12657,2146965769,2147517769,2147296109,2147516589,2147088886,2146919552,2147721225,2147122422,3473,-1,8,33968
